This is the latest recevied weather packets stored in our database for station/object 4S6DRJ-13. If no packets are shown the sender has not sent any weather packets the latest 10 day(s).
| Time | Temp. | Humidity | Pressure | Rain* | Wind** | Luminosity | Snow |
|---|---|---|---|---|---|---|---|
| 1788127238 | 27.78° C | 83% | 1008.8 hPa | 0 mm | 0.45 m/s, 281° | 0 W/m² | - |
| 1788127177 | 27.78° C | 83% | 1009 hPa | 0 mm | 0.89 m/s, 326° | 0 W/m² | - |
| 1788127116 | 27.78° C | 83% | 1008.8 hPa | 0 mm | 0.45 m/s, 343° | 0 W/m² | - |
| 1788127055 | 27.78° C | 83% | 1008.8 hPa | 0 mm | 0.45 m/s, 311° | 0 W/m² | - |
| 1788126994 | 27.78° C | 83% | 1008.9 hPa | 0 mm | 0.89 m/s, 154° | 0 W/m² | - |
| 1788126934 | 27.78° C | 83% | 1008.8 hPa | 0 mm | 1.34 m/s, 250° | 0 W/m² | - |
| 1788126872 | 27.78° C | 83% | 1008.9 hPa | 0 mm | 1.34 m/s, 324° | 0 W/m² | - |
| 1788126811 | 27.78° C | 83% | 1009 hPa | 0 mm | 0.89 m/s, 279° | 0 W/m² | - |
| 1788126750 | 27.78° C | 83% | 1008.8 hPa | 0 mm | 0.45 m/s, 326° | 0 W/m² | - |
| 1788126689 | 27.78° C | 83% | 1008.7 hPa | 0 mm | 1.34 m/s, 282° | 0 W/m² | - |
| 1788126628 | 27.78° C | 83% | 1009 hPa | 0 mm | 1.79 m/s, 232° | 0 W/m² | - |
| 1788126567 | 27.78° C | 84% | 1008.7 hPa | 0 mm | 1.34 m/s, 229° | 0 W/m² | - |
| 1788126513 | 27.78° C | 84% | 1008.8 hPa | 0 mm | 1.34 m/s, 307° | 0 W/m² | - |
| 1788126445 | 27.78° C | 84% | 1008.8 hPa | 0 mm | 0.89 m/s, 188° | 0 W/m² | - |
| 1788126384 | 27.78° C | 84% | 1009.1 hPa | 0 mm | 1.34 m/s, 275° | 0 W/m² | - |
| 1788126323 | 27.78° C | 84% | 1009 hPa | 0 mm | 1.34 m/s, 274° | 0 W/m² | - |
| 1788126262 | 27.78° C | 84% | 1008.7 hPa | 0 mm | 1.34 m/s, 297° | 0 W/m² | - |
| 1788126201 | 27.78° C | 84% | 1008.8 hPa | 0 mm | 0.45 m/s, 313° | 0 W/m² | - |
| 1788126140 | 27.78° C | 84% | 1008.9 hPa | 0 mm | 0.89 m/s, 287° | 0 W/m² | - |
| 1788126079 | 27.78° C | 84% | 1008.8 hPa | 0 mm | 1.34 m/s, 20° | 0 W/m² | - |
| 1788126018 | 27.78° C | 84% | 1009 hPa | 0 mm | 0.45 m/s, 260° | 0 W/m² | - |
| 1788125957 | 27.78° C | 84% | 1009 hPa | 0 mm | 1.79 m/s, 272° | 0 W/m² | - |
| 1788125897 | 27.78° C | 84% | 1008.8 hPa | 0 mm | 0.89 m/s, 263° | 0 W/m² | - |
| 1788125835 | 27.78° C | 84% | 1009.1 hPa | 0 mm | 1.34 m/s, 300° | 0 W/m² | - |
| 1788125774 | 27.78° C | 84% | 1008.9 hPa | 0 mm | 1.34 m/s, 281° | 0 W/m² | - |
* Rain latest hour (hover to see other rain measurements)
** Current wind speed in m/s (hover to see current wind gust speed)